Kezdőlap
METAR-TAF:

METAR-TAF

Repülőterek :

Iowa City Municipal Airport

Iowa City, Iowa, Amerikai Egyesült Államok

földrajzi szélesség: 41-37-58N, földrajzi hosszúság: 091-32-35W, magasság: 203 m

Jelenlegi meteorológiai megfigyelések

A jelentés 13 perccel ezelõtt készült, 17:52 UTC
Északnyugati szél 8 kt
Hőmérséklet 6°C
Páratartalom 56%
Légköri nyomás 1015 hPa
Látótávolság: 16.1 km
Derült ég

METAR: KIOW 041752Z AUTO 32008KT 10SM CLR 06/M02 A2997 RMK AO2 SLP154 T00561022 10061 21050 58002

Idő: 12:05 (18:05 UTC)


TAF: hiányzik

Meteorológiai megfigyelések és előrejelzések több, mint 4000 repülőtéren (METAR és TAF jelentéseket).

A térképen piros és sárga pontok jelzik az elérhető meteorológiai állomásokat.

Mozgassa az egeret a pont fölött, hogy megjelenjen az állomás neve.

Azután kattintson az időjárási megfigyelések és előrejelzések megtekintéséhez.

A térkép megváltoztatása: kattintson a fekete keresztel jelölt zöld gombra ráközelítéshez, a vonallal jelölt zöld gombra távolításhoz, vagy a zöld nyilakra a szomszédos térképek eléréséhez.


METAR-TAF: